Weather in Cruzeiro do Sul

Brazil     29°30′47″S   51°59′17″W
temp.,
°C
wind,
m/s
gust,
m/s
humid.,
%
clouds,
%
prec.,
mm/h
press.,
hPa
HPBL,
m
7 may, fri
fri700:00+8nw11870 0.0 102410
03:00+7nnw11890 0.0 102411
06:00+6nnw11910 0.0 102413
09:00+11nnw12700 0.0 1026287
12:00+17ssw11510 0.0 1025916
15:00+18s22490 0.0 10231175
18:00+13ssw01720 0.0 102411
21:00+10n11840 0.0 102610
8 may, sat
sat800:00+9nnw11910 0.0 102711
03:00+8n119593 0.0 102711
06:00+7n11961 0.0 102711
09:00+12n12770 0.0 1028252
12:00+19e12530 0.0 1027845
15:00+21sse22480 0.0 10241117
18:00+14se22760 0.0 102425
21:00+11ssw01920 0.0 102610
9 may, sun
sun900:00+10n11960 0.0 102513
03:00+9n11960 0.0 102422
06:00+9n22950 0.0 102427
09:00+13nne13730 0.0 1025215
12:00+21nne24500 0.0 1023899
15:00+24e13410 0.0 10201370
18:00+16ese24730 0.0 102062
21:00+13nw11850 0.0 102111
10 may, mon
mon1000:00+12n22890 0.0 102135
03:00+11n23930 0.0 102060
06:00+11n259252 0.0 1019107
09:00+17n247219 0.0 1020239
12:00+22nne1359100 0.0 1019441
15:00+24s335685 0.0 1017700
18:00+18sw118022 0.1 101712
21:00+15wsw1190100 0.1 102026
11 may, tue
tue1100:00+16wsw1291100 0.0 1020100
03:00+16ssw2697100 0.8 1019451
06:00+15sw2695100 0.2 1020316
09:00+14ssw358989 0.3 1022464
12:00+17ssw3446100 0.0 10221106
15:00+18ssw234436 0.0 10211232
18:00+13nw1160100 0.0 102010
21:00+10sse117271 0.0 102210